If you wish to contribute or participate in the discussions about articles you are invited to join SKYbrary as a registered user

 Actions

Antwerp

From SKYbrary Wiki

EBAW
Airport
ICAO: EBAW – IATA: ANR
Summary
Name Antwerp
Region Europe
Territory Belgium BE.gif
Location Deurne, Antwerpen
Serving Antwerpen
Elevation 11.887 m
39 ft
39 ft11.887 m
Coordinates 51° 11' 22.5598", 4° 27' 44.003"
Runways
Designator Length Width Surface ROPS
11/29 1510 m4,954.068 ft 45 m147.638 ft ASP yes/yes


METAR
Observation EBAW 211150Z 11004KT 9999 BKN043 15/07 Q1028 NOSIG
Station Antwerpen / Deurne
Date/Time 21 October 2018 11:50:00
Wind direction 110°
Wind speed 04 kts
Lowest cloud amount broken clouds
Temperature 15°C
Dew point 7°C
Humidity 58%
QNH 1028 hPa
Weather condition n/a

Antwerpen International Airport

ICAO: EBAW IATA: ANR

Description

Antwerpen International Airport is located 2 km1.08 nm
2,000 m
6,561.68 ft
from the city of Antwerp, Belgium.

Climatology

Temperate Marine climate/Oceanic climate (Köppen climate classification Cfb) - Moderately cool summer and comparatively warm winter.

Maps

Terrain

Loading map...

Airport Layout

Loading map...


Accidents & Serious Incidents at or in vicinity of EBAW

None on SKYbrary